Probability
0 0 0 0 0 0 0 0 0 0 0 0 0 0 0 0 0 0 0 0 0 0 0 0 0 0 0 0 0 0 0 0 0 0 0 0 1 2
0 0 0 0 0 0 0 0 0 0 0 0 0 0 0 0 0 0 0 0 0 0 0 0 0 0 0 0 0 0 0 0 0 0 0 0 1 2
0 0 0 0 0 0 0 0 0 0 0 0 0 0 0 0 0 0 0 0 0 0 0 0 0 0 0 0 0 0 0 0 0 0 0 0 0 1
0 0 0 0 0 0 0 0 0 0 0 0 0 0 0 0 0 0 0 0 0 0 0 0 0 0 0 0 0 0 0 0 0 0 0 0 0 0
0 0 0 0 0 0 0 0 0 0 0 0 0 0 0 0 0 0 0 0 0 0 0 0 0 0 0 0 0 0 0 0 0 0 0 0 0 0
0 0 0 0 0 0 0 0 0 0 0 0 0 0 0 0 0 0 0 0 0 0 0 0 0 0 0 0 0 0 0 0 0 0 0 0 0 0
0 0 0 0 0 0 0 0 0 0 0 0 0 0 0 0 0 0 0 0 0 0 0 0 0 0 0 0 0 0 0 0 0 0 0 0 0 0
0 0 0 0 0 0 0 0 0 0 0 0 0 0 0 0 0 0 0 0 0 0 0 0 0 0 0 0 0 0 0 0 0 0 0 0 0 0
0 0 0 0 0 0 0 0 0 0 0 0 0 0 0 0 0 0 0 0 0 0 0 0 0 0 0 0 0 0 0 0 0 0 0 0 0 0
0 0 0 0 0 0 0 0 0 0 0 0 0 0 0 0 0 0 0 0 0 0 0 0 0 0 0 0 0 0 0 0 0 0 0 0 0 0
0 0 0 0 0 0 0 0 0 0 0 0 0 0 0 0 0 0 0 0 0 0 0 0 0 0 0 0 0 0 0 0 0 0 0 0 0 0
0 0 0 0 0 0 0 0 0 0 0 0 0 0 0 0 0 0 0 0 0 0 0 0 0 0 0 0 0 0 0 0 0 0 0 0 0 0
0 0 0 0 0 0 0 0 0 0 0 0 0 0 0 0 0 0 0 0 0 0 0 0 0 0 0 0 0 0 0 0 0 0 0 0 0 0
0 0 0 0 0 0 0 0 0 0 0 0 0 0 0 0 0 0 0 0 0 0 0 0 0 0 0 0 0 0 0 0 0 0 0 0 0 0
0 0 0 0 0 0 0 0 0 0 0 0 0 0 0 0 0 0 0 0 0 0 0 0 0 0 0 0 0 0 0 0 0 0 0 0 0 0
0 0 0 0 0 0 0 0 0 0 0 0 0 0 0 0 0 0 0 0 0 0 0 0 0 0 0 0 0 0 0 0 0 0 0 0 0 0
0 0 0 0 0 0 0 0 0 0 0 0 0 0 0 0 0 0 0 0 0 0 0 0 0 0 0 0 0 0 0 0 0 0 0 0 0 0
0 0 0 0 0 0 0 0 0 0 0 0 0 0 0 0 0 0 0 0 0 0 0 0 0 0 0 0 0 0 0 0 0 0 0 0 0 0
0 0 0 0 0 0 0 0 0 0 0 0 0 0 0 0 0 0 0 0 0 0 0 0 0 0 0 0 0 0 0 0 0 0 0 0 0 0
0 0 0 0 0 0 0 0 0 0 0 0 0 0 0 0 0 0 0 0 0 0 0 0 0 0 0 0 0 0 0 0 0 0 0 0 0 0
0 0 0 0 0 0 0 0 0 0 0 0 0 0 0 0 0 0 0 0 0 0 0 0 0 0 0 0 0 0 0 0 0 0 0 0 0 0
0 0 0 0 0 0 0 0 0 0 0 0 0 0 0 0 0 0 0 0 0 0 0 0 0 0 0 0 0 0 0 0 0 0 0 0 0 0
0 0 0 0 0 0 0 0 0 0 0 0 0 0 0 0 0 0 0 0 0 0 0 0 0 0 0 0 0 0 0 0 0 0 0 0 0 0
Wind_Speed
4 4 4 3 2 3 2 3 3 3 4 3 2 2 2 2 4 4 4 8 10 10 11 11 11 11 10 11 11 11 11 11 11 12 13 13 13 13
4 4 4 3 3 3 3 3 3 4 5 4 3 3 3 4 7 5 5 9 10 11 11 11 11 11 10 11 11 11 11 12 12 12 13 14 13 13
4 5 5 5 4 3 3 3 4 3 6 5 3 3 4 4 5 4 5 5 5 10 11 11 11 11 11 11 11 11 12 12 13 13 14 14 13 13
5 5 5 4 5 4 4 5 4 4 5 6 4 3 4 5 5 5 6 5 5 9 11 11 11 11 11 11 11 11 12 12 13 13 13 14 14 14
5 6 6 5 6 4 4 5 4 5 4 4 5 3 3 3 4 5 6 5 6 7 9 10 11 12 12 12 12 12 12 13 13 13 13 14 14 15
5 5 6 6 7 6 5 5 5 5 4 4 5 4 4 3 3 4 5 4 5 5 8 9 10 12 13 13 13 13 13 13 13 14 14 14 14 15
5 5 6 7 8 7 6 5 5 5 4 5 5 4 4 3 4 4 5 5 5 5 4 5 5 5 6 10 11 13 13 14 14 14 14 14 15 15
5 5 6 7 8 10 10 9 8 7 6 6 6 6 6 5 4 4 5 5 5 2 3 6 5 6 6 6 11 14 14 13 13 13 14 14 14 15
5 4 4 5 7 5 7 9 9 10 10 7 8 8 7 5 5 6 6 6 7 4 4 7 5 7 6 7 13 14 14 14 13 13 13 14 14 15
5 5 5 5 6 6 5 5 6 7 8 7 7 7 7 6 6 7 7 7 6 5 4 6 5 5 6 6 11 13 13 13 13 13 13 14 14 14
4 5 5 6 9 9 6 6 6 6 7 9 9 9 10 11 8 4 4 5 6 5 3 5 5 5 5 6 7 10 11 11 12 13 13 13 13 13
4 5 8 8 9 9 6 6 7 6 5 6 7 7 7 7 9 6 5 5 5 5 3 3 4 3 5 4 4 4 5 9 12 12 12 12 12 8
4 4 4 9 10 10 8 6 7 6 5 5 5 5 4 4 4 5 5 5 6 6 4 3 4 4 5 6 4 4 4 4 5 6 9 11 12 10
4 4 5 9 9 9 7 7 9 8 4 3 4 4 4 4 4 5 5 5 6 8 7 5 5 5 5 7 6 4 3 4 5 5 5 8 10 11
4 7 7 8 8 6 8 9 7 4 3 4 4 5 4 4 4 4 5 5 5 6 6 6 6 5 6 7 7 6 5 5 4 4 5 5 5 5
4 5 7 7 6 6 5 5 4 4 4 4 4 4 3 3 4 4 4 4 4 5 5 5 6 6 6 7 7 7 5 5 4 4 5 6 5 5
2 2 2 2 2 3 3 3 3 3 4 3 3 3 4 4 4 3 4 4 5 5 5 4 3 4 6 6 7 7 6 6 5 5 5 6 6 5
3 2 2 2 3 3 3 3 3 3 4 4 4 4 4 4 4 4 4 4 5 5 5 4 3 4 4 5 7 7 6 6 5 5 5 6 7 6
2 2 2 3 3 3 3 3 4 4 3 4 4 4 4 4 4 4 4 4 5 5 5 4 4 4 5 7 5 5 5 5 5 5 5 6 7 7
2 2 3 3 3 3 3 4 4 3 3 4 4 4 4 4 4 5 5 5 5 5 5 4 4 5 6 6 6 5 6 6 6 6 6 5 6 7
3 3 3 3 3 3 3 4 4 4 4 4 4 4 4 4 5 5 5 7 7 5 6 6 5 7 4 3 5 5 4 6 7 6 5 5 6 5
3 3 3 3 3 3 3 3 4 4 4 4 4 4 4 4 5 6 5 5 5 5 6 5 4 4 3 5 6 6 6 5 5 8 8 8 5 5
3 4 4 4 4 3 3 4 4 4 4 4 4 4 4 4 5 5 5 5 5 5 5 5 4 4 4 5 5 5 6 6 4 4 4 6 8 9
Wind_Direction
232 231 235 237 238 235 226 209 205 243 261 250 255 249 262 271 287 281 270 283 286 288 287 285 278 273 273 272 272 273 274 275 276 276 278 276 273 271
233 231 238 242 245 241 232 228 222 226 250 248 253 272 282 291 293 290 283 289 285 283 285 284 280 272 271 272 273 273 274 273 273 274 273 275 269 269
241 236 238 235 236 241 237 231 231 229 249 266 266 273 268 276 287 283 277 271 268 278 281 283 282 276 272 273 274 275 275 274 272 274 273 275 272 270
243 243 244 240 235 235 233 233 235 235 238 260 270 269 264 264 269 277 284 284 271 276 278 280 282 279 271 272 275 278 277 276 273 272 273 273 275 270
241 241 246 242 243 238 237 237 236 245 241 249 265 265 267 267 276 279 277 275 277 274 276 276 277 278 273 271 272 273 273 272 272 273 274 273 275 271
246 245 246 242 243 240 242 242 238 242 247 250 261 265 263 259 251 264 277 272 276 276 274 275 275 277 275 268 268 270 271 271 270 270 272 272 271 273
250 249 251 254 254 250 247 242 237 239 244 249 259 265 262 255 250 254 268 280 278 262 262 263 264 261 265 266 267 266 267 268 268 268 268 270 269 271
252 252 253 258 262 264 262 258 250 240 237 241 251 256 259 256 259 265 271 279 279 249 255 267 261 261 258 252 261 266 267 268 269 270 270 270 270 271
250 254 260 262 266 259 266 270 268 265 256 247 249 253 255 252 253 261 261 266 267 268 279 273 258 262 261 264 268 265 267 269 271 273 275 274 273 272
248 248 254 262 260 261 257 260 261 265 263 253 249 254 255 252 243 252 259 270 275 267 256 265 261 265 274 263 267 266 267 269 270 272 274 275 278 276
258 252 253 255 262 265 258 259 264 268 275 268 266 270 273 274 268 258 257 262 274 272 246 254 268 278 276 269 263 265 268 271 275 277 278 279 281 283
264 258 258 261 265 263 255 253 259 262 269 276 278 279 275 275 275 255 245 248 262 270 244 241 260 281 287 268 262 267 270 273 278 281 281 282 284 283
263 262 262 267 269 269 265 256 261 269 264 262 266 271 270 265 263 257 246 241 248 256 249 253 264 266 261 279 279 274 267 269 274 275 279 282 282 280
260 259 262 271 274 277 274 271 273 274 262 258 260 264 267 268 265 262 259 252 249 252 252 247 255 261 268 275 279 274 266 273 275 274 273 279 280 282
261 264 267 270 274 274 274 277 276 265 255 256 259 262 262 266 268 268 269 264 267 265 258 252 247 254 259 265 271 276 286 283 268 269 272 274 273 274
276 274 275 275 272 268 269 274 268 261 260 259 264 266 269 271 269 267 272 274 279 281 273 259 246 242 253 262 264 272 272 269 271 275 281 280 275 268
282 281 279 273 269 267 263 261 261 263 264 263 265 270 268 267 273 275 269 270 269 275 283 284 268 250 248 257 266 265 267 271 270 274 281 285 280 270
287 270 269 268 264 263 264 266 258 257 257 260 262 262 266 267 272 274 268 265 267 271 273 275 281 283 278 269 251 258 261 267 273 273 271 276 282 278
289 290 279 273 272 267 261 259 262 261 258 258 262 264 266 266 268 270 268 267 267 268 270 266 261 261 272 281 276 243 255 267 271 272 269 270 277 284
309 297 292 290 285 279 271 263 261 264 260 259 261 263 263 264 266 267 267 267 272 273 274 268 254 249 253 269 282 283 261 257 262 268 275 278 277 282
305 302 299 296 293 291 287 278 267 261 260 259 261 261 260 261 262 264 264 269 274 270 267 267 264 268 268 270 277 282 280 260 257 263 270 277 285 286
299 297 296 293 291 290 289 287 280 270 265 262 262 263 262 261 260 262 263 263 264 266 270 274 275 273 259 255 267 279 288 291 278 277 272 265 263 267
300 298 296 293 289 286 284 283 281 279 271 264 264 265 266 264 263 262 261 259 260 265 271 276 276 270 266 260 264 273 281 290 296 296 290 286 278 276